Powrót do katalogu

STARLINK-4714

AktywnyŁącznośćVLEO
NORAD 53704·PAYLOAD·🇺🇸 United States

Wystrzelony Sep 5, 2022 z Cape Canaveral Space Force Station

Loading…

Następne Przeloty (najbliższe 24 godziny)

TLE

ŚwieżeSource: CelesTrak SupGP

Epoka: Sep 14, 2026, 22:04 UTC

1 53704C 22107E   26257.91993056 -.00004810  00000+0 -15471-3 0  2577
2 53704  53.1581 101.7636 0001372  85.6751 354.9459 15.31698308    17

Śledź STARLINK-4714 w czasie rzeczywistym z AllMySat

Download on the App Store